Location: Newark
(47.3150°N, 5.1150°E)
Time: 11:19:42
(UTC+00:00)

AO-7 - Pass Details

Date: 18 December 2019
Orbit: 1440 x 1459 km, 101.8° (Epoch: 17 January)

Event Time Altitude Azimuth Distance (km) Brightness Sun altitude
Rises 16:21:06 0° 219° (SW) 4,522 ? -5.3°
Reaches altitude 10° 16:25:29 10° 241° (WSW) 3,552 ? -5.9°
Maximum altitude 16:29:58 15° 274° (W) 3,150 ? -6.6°
Drops below altitude 10° 16:34:30 10° 308° (NW) 3,569 ? -7.3°
Sets 16:38:59 0° 330° (NNW) 4,557 ? -8.0°
